This is the latest recevied weather packets stored in our database for station/object KB1ZFK. If no packets are shown the sender has not sent any weather packets the latest 1 day(s).
| Time | Temp. | Humidity | Pressure | Rain* | Wind** | Luminosity | Snow |
|---|---|---|---|---|---|---|---|
| 1778040692 | 18.33° C | 65% | 1008.7 hPa | 0 mm | 0.45 m/s, 341° | 0 W/m² | - |
| 1778040390 | 18.33° C | 64% | 1008.7 hPa | 0 mm | 0.45 m/s, 327° | 0 W/m² | - |
| 1778040086 | 18.33° C | 63% | 1008.8 hPa | 0 mm | 0.45 m/s, 330° | 0 W/m² | - |
| 1778039783 | 18.33° C | 63% | 1008.9 hPa | 0 mm | 0.45 m/s, 287° | 0 W/m² | - |
| 1778039480 | 18.89° C | 63% | 1008.8 hPa | 0 mm | 0.45 m/s, 342° | 0 W/m² | - |
| 1778039177 | 18.89° C | 63% | 1008.8 hPa | 0 mm | 0.45 m/s, 333° | 0 W/m² | - |
| 1778038874 | 18.89° C | 63% | 1008.9 hPa | 0 mm | 0 m/s | 0 W/m² | - |
| 1778038571 | 18.89° C | 63% | 1008.6 hPa | 0 mm | 0 m/s | 0 W/m² | - |
| 1778038268 | 18.89° C | 62% | 1008.6 hPa | 0 mm | 0.45 m/s, 351° | 0 W/m² | - |
| 1778037965 | 18.89° C | 61% | 1008.7 hPa | 0 mm | 0.45 m/s, 322° | 0 W/m² | - |
| 1778037662 | 19.44° C | 63% | 1008.7 hPa | 0 mm | 0.45 m/s, 332° | 0 W/m² | - |
| 1778037359 | 18.89° C | 61% | 1008.6 hPa | 0 mm | 0.45 m/s, 21° | 0 W/m² | - |
| 1778037056 | 18.89° C | 62% | 1008.6 hPa | 0 mm | 0.45 m/s, 334° | 0 W/m² | - |
| 1778036755 | 18.33° C | 63% | 1008.6 hPa | 0 mm | 0.45 m/s, 344° | 0 W/m² | - |
| 1778036451 | 18.89° C | 63% | 1008.6 hPa | 0 mm | 0.45 m/s, 331° | 0 W/m² | - |
| 1778036148 | 18.89° C | 64% | 1008.6 hPa | 0 mm | 0 m/s | 0 W/m² | - |
| 1778035844 | 18.89° C | 64% | 1008.9 hPa | 0 mm | 0.45 m/s, 346° | 0 W/m² | - |
| 1778035542 | 18.89° C | 63% | 1008.7 hPa | 0 mm | 0 m/s | 0 W/m² | - |
| 1778035238 | 18.89° C | 63% | 1008.8 hPa | 0 mm | 0.45 m/s, 346° | 0 W/m² | - |
| 1778034934 | 18.89° C | 63% | 1008.5 hPa | 0 mm | 0.89 m/s, 359° | 0 W/m² | - |
| 1778034635 | 18.89° C | 65% | 1008.5 hPa | 0 mm | 0 m/s | 0 W/m² | - |
| 1778034329 | 18.89° C | 65% | 1008.7 hPa | 0 mm | 0 m/s | 0 W/m² | - |
| 1778034027 | 18.89° C | 66% | 1008.6 hPa | 0 mm | 0 m/s | 0 W/m² | - |
| 1778033724 | 18.89° C | 66% | 1008.5 hPa | 0 mm | 0 m/s | 0 W/m² | - |
| 1778033421 | 18.89° C | 67% | 1008.5 hPa | 0 mm | 0 m/s | 0 W/m² | - |
* Rain latest hour (hover to see other rain measurements)
** Current wind speed in m/s (hover to see current wind gust speed)